Regional Weather Roundup
Issued by NWS

Home | Current Version | Previous Version | Graphics & Text | Print | Product List | Glossary On
Versions: 1 2 3 4 5 6 7 8 9 10 11 12 13 14 15 16 17 18 19 20 21 22 23 24 25 26 27 28 29 30 31 32 33 34 35 36 37 38 39 40 41 42 43 44 45 46 47 48 49 50
000
ASUS43 KOAX 201702
RWRNE

WEATHER ROUNDUP FOR NEBRASKA
NATIONAL WEATHER SERVICE OMAHA NE
1200 PM CDT SUN AUG 20 2017

NOTES: SATELLITE DATA IS BEING USED TO AUGMENT CLOUD COVER ABOVE
       12000 FEET.
       "FAIR" INDICATES FEW OR NO CLOUDS BELOW 12,000 FEET WITH NO
       SIGNIFICANT WEATHER AND/OR OBSTRUCTIONS TO VISIBILITY.


NEZ001>004-019>022-054>056-201800-
NEBRASKA PANHANDLE

CITY           SKY/WX    TMP DP  RH WIND       PRES   REMARKS
SCOTTSBLUFF    CLOUDY    78  59  51 E12G18    30.09S
ALLIANCE       CLOUDY    76  52  43 E17       30.08F
CHADRON        SUNNY     75  51  43 NE8       30.09F
GORDON         FAIR      78  52  39 E10G20    30.09R
KIMBALL        SUNNY     73  55  51 NE10      30.14S
SIDNEY         SUNNY     77  61  57 NE14G23   30.08F
$$

NEZ057>060-069>072-079>082-201800-
SOUTHWEST NEBRASKA

CITY           SKY/WX    TMP DP  RH WIND       PRES   REMARKS
NORTH PLATTE   SUNNY     82  67  60 NE10      29.96R
IMPERIAL       SUNNY     81  62  52 NE9       29.98S
LEXINGTON      SUNNY     80  69  69 E3        29.95R
MCCOOK         SUNNY     83  59  44 SE6       29.93S
OGALLALA       SUNNY     83  63  51 NE13      29.99R
$$

NEZ005>010-023>029-035>040-094-201800-
NORTH CENTRAL NEBRASKA

CITY           SKY/WX    TMP DP  RH WIND       PRES   REMARKS
VALENTINE      SUNNY     82  53  36 E21       30.01R
AINSWORTH      SUNNY     79  59  50 E16G22    29.99S
BROKEN BOW     SUNNY     78  66  66 NE8       29.97R
O`NEILL        SUNNY     79  64  60 SE7       29.98F
ORD            MOSUNNY   76  64  66 SE9       29.96R
THEDFORD       SUNNY     80  64  56 NE18      30.01S
$$

NEZ041-046>049-061>064-073>077-083>087-201800-
SOUTH CENTRAL NEBRASKA

CITY           SKY/WX    TMP DP  RH WIND       PRES   REMARKS
GRAND ISLAND   SUNNY     79  70  74 SE10      29.95R
AURORA         CLOUDY    80  72  75 S7        29.96R
HASTINGS       SUNNY     81  69  67 SE8       29.95R
HEBRON         SUNNY     85  70  60 S5        29.95R
HOLDREGE       SUNNY     82  66  59 S7        29.93S
KEARNEY        SUNNY     80  70  71 VRB7      29.94S
$$

NEZ011>018-030>034-042>045-201800-
NORTHEAST NEBRASKA

CITY           SKY/WX    TMP DP  RH WIND       PRES   REMARKS
NORFOLK        SUNNY     81  65  58 NE3       29.95F
ALBION         SUNNY     79  68  68 E3        29.98R
BLAIR          RAIN      76  68  75 CALM      29.98S
COLUMBUS       SUNNY     78  69  73 E10       29.98S
FREMONT        PTSUNNY   78  63  61 CALM      29.98F
TEKAMAH        SUNNY     78  66  66 CALM      29.96F
WAYNE          SUNNY     79  64  60 CALM      29.97F
$$

NEZ050>053-065>068-078-088>093-201800-
SOUTHEAST NEBRASKA

CITY           SKY/WX    TMP DP  RH WIND       PRES   REMARKS
LINCOLN        PTSUNNY   77  67  71 E7        29.97S
OMAHA EPPLEY   CLOUDY    73  66  78 NW7       29.97F
BEATRICE       SUNNY     84  67  55 SE9       29.96S
FALLS CITY     PTSUNNY   83  67  58 SE14      29.97R
NEBRASKA CITY  CLOUDY    73  68  84 NE10      30.01R
PLATTSMOUTH    CLOUDY    68  63  85 SE15G21   29.99F
$$

NEZ044-045-051>053-067-201800-
OMAHA AREA

CITY           SKY/WX    TMP DP  RH WIND       PRES   REMARKS
OMAHA EPPLEY   CLOUDY    73  66  78 NW7       29.97F
BLAIR          RAIN      76  68  75 CALM      29.98S
FREMONT        PTSUNNY   78  63  61 CALM      29.98F
MILLARD        PTSUNNY   76  65  68 S3        29.98S
OFFUTT AFB     CLOUDY    70  65  85 SW3       29.98R
PLATTSMOUTH    CLOUDY    68  63  85 SE15G21   29.99F
WAHOO          CLOUDY    76  65  68 SE6       29.99R
$$




USA.gov is the U.S. government's official web portal to all federal, state and local government web resources and services.